This demonstration page uses our WeatherBlox Daily Observations layout. Learn more.

Left ArrowRight Arrow

Hourly Observations for June 5, 2017

Temp ( °F °C ) Dew Point ( °F °C ) Humidity (%) Winds ( mph kmh ) Pressure ( in mb ) Visibility ( mi km ) Precip ( " mm )
12:00 am 00:00 Cloudy with Light Rain 72 22.2 72 22.2 100 100 SE 5 7 29.91 1013 9 14 0.01 0.25
12:16 am 00:16 Cloudy with Light Rain 72 22.2 72 22.2 100 100 SSE 6 9 29.91 1013 10 16 0.01 0.25
12:53 am 00:53 Cloudy with Light Rain 72 22.2 72 22.2 100 100 S 5 7 29.90 1012 10 16 0.01 0.25
1:14 am 01:14 Cloudy 72 22.2 72 22.2 100 100 SSW 5 7 29.88 1012 10 16 0.00 0.03
1:30 am 01:30 Cloudy 71 21.7 71 21.7 100 100 SSW 5 7 29.88 1012 10 16 0.00 0.03
1:53 am 01:53 Cloudy 71 21.7 71 21.7 100 100 S 5 7 29.88 1012 10 16 0.00 0.03
2:53 am 02:53 Cloudy 71 21.7 71 21.7 100 100 S 5 7 29.86 1011 10 16 0.00 0.00
3:53 am 03:53 Cloudy 71 21.7 71 21.7 100 100 SW 3 6 29.85 1011 10 16 0.00 0.00
4:53 am 04:53 Cloudy 71 21.7 71 21.7 100 100 S 3 6 29.83 1010 10 16 0.00 0.00
5:53 am 05:53 Cloudy 71 21.7 71 21.7 100 100 SW 3 6 29.84 1011 10 16 0.00 0.00
6:53 am 06:53 Cloudy 71 21.7 71 21.7 100 100 SW 6 9 29.85 1011 7 11 0.00 0.00
7:53 am 07:53 Cloudy 71 21.7 71 21.7 100 100 SW 6 9 29.85 1011 10 16 0.00 0.00
8:53 am 08:53 Cloudy 73 22.8 71 21.7 94 94 SW 7 11 29.86 1011 7 11 0.00 0.00
9:53 am 09:53 Cloudy 74 23.3 72 22.2 94 94 VRB 7 11 29.86 1011 10 16 0.00 0.00
10:53 am 10:53 Cloudy 76 24.4 72 22.2 88 88 WSW 7 11 29.86 1011 10 16 0.00 0.00
11:00 am 11:00 Cloudy 76 24.4 72 22.2 88 88 SW 8 13 29.85 1011 10 16 0.00 0.00
11:10 am 11:10 Cloudy 76 24.4 71 21.7 85 85 SW 9 15 29.85 1011 10 16 0.00 0.00
11:53 am 11:53 Mostly Cloudy 78 25.6 71 21.7 79 79 SW 9 15 29.85 1011 10 16 0.00 0.00
12:28 pm 12:28 Mostly Cloudy 78 25.6 71 21.7 79 79 WSW 9 15 29.83 1010 10 16 0.00 0.00
12:53 pm 12:53 Mostly Cloudy 81 27.2 72 22.2 74 74 W 8 13 29.82 1010 10 16 0.00 0.00
1:53 pm 13:53 Cloudy 80 26.7 71 21.7 74 74 WSW 6 9 29.80 1009 10 16 0.00 0.00
2:07 pm 14:07 Cloudy 80 26.7 71 21.7 74 74 VRB 6 9 29.80 1009 10 16 0.00 0.00
2:27 pm 14:27 Cloudy 80 26.7 70 21.1 71 71 SSW 6 9 29.80 1009 10 16 0.00 0.00
2:53 pm 14:53 Mostly Sunny 83 28.3 70 21.1 65 65 VRB 6 9 29.78 1009 10 16 0.00 0.00
3:53 pm 15:53 Mostly Cloudy 80 26.7 69 20.6 69 69 SW 10 17 29.78 1008 10 16 0.00 0.00
4:35 pm 16:35 Mostly Cloudy with Nearby Thunderstorms 81 27.2 70 21.1 69 69 W 7 11 29.77 1008 10 16 0.00 0.03
4:50 pm 16:50 Mostly Cloudy 79 26 70 21 74 74 WNW 21 33 29.77 1008 10 16 0.00 0.03
4:53 pm 16:53 Mostly Cloudy 77 25 68 20 74 74 W 21 33 29.79 1009 10 16 0.00 0.03
5:53 pm 17:53 Cloudy 73 22.8 72 22.2 96 96 SW 3 6 29.79 1009 7 11 0.07 1.78
6:53 pm 18:53 Mostly Sunny 75 23.9 71 21.7 88 88 SW 5 7 29.78 1008 10 16 0.00 0.03
7:53 pm 19:53 Mostly Sunny 74 23.3 72 22.2 94 94 SW 6 9 29.79 1009 10 16 0.00 0.00
8:53 pm 20:53 Mostly Clear 73 22.8 72 22.2 96 96 SW 5 7 29.79 1009 10 16 0.00 0.03
9:53 pm 21:53 Clear 73 22.8 72 22.2 96 96 SSW 3 6 29.80 1009 10 16 0.00 0.00
10:53 pm 22:53 Mostly Clear 72 22.2 72 22.2 100 100 SW 3 6 29.81 1010 10 16 0.00 0.00
11:53 pm 23:53 Mostly Clear 72 22.2 72 22.2 100 100 SW 3 6 29.81 1010 10 16 0.00 0.03

Powered by AerisWeather